[[{"header":{"parameterUnit":"m.s-1","parameterCategory":1,"la1":30.2991,"la2":30.254,"lo1":-89.0895,"lo2":-89.0444,"dy":0.0017,"dx":0.0017,"nx":28,"ny":28,"refTime":"2024-05-07T03:00:00:Z","depth":0,"parameterNumber":2,"parameterNumberName":"U-component_of_WINDS"},"data":[0,0,0,0,0,0,0,0,0,0,0,0,0,0,0,0,0,0,0,0,0,0,0,0,0,0,0,0,0,0,0,0,0,0,0,0,0,0,0,0,0,0,0,0,0,0,0,0,0,0,0,0,0,0,0,0,0,0,-1.5596,-1.5596,0,-1.5623,-1.5623,-1.5624,-1.5631,-1.563,-1.563,-1.563,-1.5657,-1.5658,-1.5659,0,0,0,0,0,0,0,0,0,0,0,0,0,-1.555,-1.5551,-1.5596,-1.5596,-1.5597,-1.5623,-1.5623,-1.5624,-1.5631,-1.563,-1.563,-1.563,-1.5657,-1.5658,-1.5659,0,0,0,0,0,0,0,0,0,0,0,0,0,-1.5573,-1.5551,-1.5596,-1.5603,-1.5604,-1.5623,-1.5623,-1.5624,-1.5631,-1.563,-1.563,-1.563,-1.5657,-1.5658,-1.5659,-1.5672,0,0,-1.5663,-1.5664,0,0,0,0,0,0,0,0,-1.5572,-1.5575,-1.5602,-1.5603,-1.5604,-1.5623,-1.5617,-1.564,-1.5631,-1.5621,-1.563,-1.563,-1.5646,-1.5648,-1.5654,-1.5674,-1.5675,-1.5663,-1.5664,-1.5665,-1.5665,0,0,0,0,0,0,0,-1.557,-1.5574,-1.5607,-1.5602,-1.5603,-1.5605,-1.5608,-1.5622,-1.5634,-1.5621,-1.5622,-1.5625,-1.5647,-1.5653,-1.5655,-1.5675,-1.5663,-1.5664,-1.5665,-1.5666,-1.5708,-1.5709,0,0,0,0,0,0,-1.5567,-1.5572,-1.5606,-1.5607,-1.5587,-1.5606,-1.561,-1.5617,-1.5634,-1.5637,-1.5625,-1.5625,-1.565,-1.5653,-1.5655,-1.5673,-1.5665,-1.5666,-1.5667,-1.5708,-1.5709,-1.5709,0,0,0,0,0,0,-1.5566,-1.557,-1.5605,-1.559,-1.5595,-1.5607,-1.5616,-1.5618,-1.5624,-1.5637,-1.564,-1.5629,-1.565,-1.5654,-1.5668,-1.5674,-1.5666,-1.5668,-1.5708,-1.5708,-1.5709,-1.5707,0,0,0,0,0,0,-1.5565,-1.557,-1.5575,-1.559,-1.5595,-1.5617,-1.5616,-1.5619,-1.5626,-1.5627,-1.5641,-1.5644,-1.565,-1.5666,-1.567,-1.5675,-1.5669,-1.5707,-1.5708,-1.5709,-1.5706,-1.5707,-1.5708,0,0,0,0,0,-1.5563,-1.5573,-1.5575,-1.5579,-1.5602,-1.5617,-1.562,-1.5628,-1.5627,-1.5632,-1.5641,-1.5643,-1.5673,-1.5668,-1.5672,-1.5678,-1.5707,-1.5708,-1.5709,-1.5706,-1.5707,-1.5708,0,0,0,0,0,0,-1.5557,-1.5575,-1.5577,-1.5592,-1.5603,-1.5618,-1.5625,-1.5629,-1.564,-1.564,-1.5649,-1.5652,-1.5667,-1.5674,-1.5668,-1.5692,-1.569,-1.5691,-1.5687,-1.5688,-1.5688,-1.5686,-1.567,0,0,0,0,0,-1.5557,-1.5568,-1.5583,-1.5595,-1.56,-1.5612,-1.5619,-1.5624,-1.5636,-1.564,-1.565,-1.5662,-1.5674,-1.5681,-1.5693,-1.5708,-1.5711,-1.5714,-1.5715,-1.5715,-1.5716,-1.5725,-1.5727,-1.5711,-1.5711,-1.5711,0,0,-1.5558,-1.5569,-1.5575,-1.5594,-1.5603,-1.5615,-1.5616,-1.5627,-1.5636,-1.5642,-1.5657,-1.5665,-1.5678,-1.5693,-1.57,-1.57,-1.5721,-1.5716,-1.5716,-1.5717,-1.5726,-1.5728,-1.5729,-1.5712,-1.5712,-1.5712,0,0,-1.5565,-1.5574,-1.5585,-1.5595,-1.5609,-1.5617,-1.562,-1.5635,-1.564,-1.5656,-1.5661,-1.5671,-1.5692,-1.5701,-1.5709,-1.5721,-1.5724,-1.5725,-1.5728,-1.5737,-1.5738,-1.5739,-1.5744,-1.5745,-1.5726,-1.5726,-1.5726,0,-1.5563,-1.5581,-1.559,-1.5602,-1.5611,-1.5618,-1.5629,-1.5638,-1.5655,-1.5661,-1.566,-1.5686,-1.5696,-1.5714,-1.5717,-1.5723,-1.5726,-1.5723,-1.5737,-1.5739,-1.574,-1.5744,-1.5746,-1.5726,-1.5726,-1.5726,-1.5726,0,-1.5579,-1.5591,-1.5598,-1.5616,-1.5625,-1.5636,-1.5648,-1.5656,-1.5661,-1.5669,-1.5685,-1.5697,-1.5712,-1.5717,-1.5721,-1.5735,-1.5735,-1.5735,-1.5733,-1.5741,-1.5745,-1.5747,-1.5726,-1.5726,-1.5726,-1.5726,0,0,-1.5581,-1.5605,-1.5607,-1.5615,-1.5633,-1.5642,-1.5655,-1.567,-1.5677,-1.5689,-1.57,-1.5718,-1.5719,-1.5728,-1.5734,-1.5742,-1.5751,-1.5742,-1.5742,-1.5743,-1.5768,-1.5767,-1.5769,-1.5754,-1.5754,-1.5754,-1.5767,0,-1.559,-1.5612,-1.5622,-1.564,-1.5652,-1.566,-1.5671,-1.5683,-1.5691,-1.5702,-1.5712,-1.5724,-1.5725,-1.573,-1.5739,-1.5748,-1.5756,-1.5748,-1.5764,-1.5764,-1.5759,-1.5771,-1.577,-1.5781,-1.5769,-1.5769,-1.5769,0,-1.5603,-1.5616,-1.5636,-1.5653,-1.5658,-1.5667,-1.5682,-1.5693,-1.5707,-1.5713,-1.5723,-1.5729,-1.5743,-1.5741,-1.576,-1.5754,-1.5762,-1.5768,-1.5768,-1.577,-1.5767,-1.5772,-1.5785,-1.5786,-1.5772,-1.5772,-1.5772,0,-1.5603,-1.5625,-1.564,-1.5647,-1.5667,-1.5674,-1.5682,-1.5696,-1.5705,-1.5718,-1.5724,-1.5739,-1.5747,-1.5758,-1.5768,-1.5766,-1.5787,-1.5785,-1.5792,-1.5791,-1.5795,-1.5794,-1.5808,-1.5801,-1.58,-1.58,-1.58,0,-1.5612,-1.5623,-1.564,-1.5649,-1.5663,-1.5674,-1.5687,-1.5697,-1.5709,-1.572,-1.5728,-1.5738,-1.5751,-1.5763,-1.5771,-1.5786,-1.579,-1.5795,-1.5797,-1.5794,-1.5793,-1.5798,-1.5798,-1.5801,-1.5801,-1.5801,-1.5801,0,-1.5613,-1.5625,-1.5642,-1.566,-1.5665,-1.5674,-1.5689,-1.5699,-1.5708,-1.5722,-1.5726,-1.5741,-1.5756,-1.5767,-1.5786,-1.5792,-1.5808,-1.581,-1.5803,-1.5804,-1.5809,-1.5809,-1.5826,-1.5829,-1.582,-1.582,-1.582,0,-1.5618,-1.5627,-1.5646,-1.5655,-1.5663,-1.5676,-1.5686,-1.5698,-1.5707,-1.5725,-1.5732,-1.5747,-1.576,-1.5784,-1.5796,-1.5811,-1.5813,-1.5819,-1.5816,-1.5813,-1.5813,-1.5812,-1.5814,-1.5819,-1.5819,-1.5819,-1.5819,0,-1.5625,-1.563,-1.5644,-1.5659,-1.567,-1.5683,-1.5696,-1.5702,-1.5717,-1.5727,-1.5742,-1.5752,-1.5773,-1.5788,-1.5804,-1.5814,-1.5819,-1.582,-1.5822,-1.5819,-1.5815,-1.5817,-1.5803,-1.5819,-1.5819,-1.5819,-1.5819,-1.5819,-1.5628,-1.5637,-1.5652,-1.5667,-1.5678,-1.569,-1.57,-1.5711,-1.5724,-1.5742,-1.5748,-1.5764,-1.5779,-1.5802,-1.5811,-1.5824,-1.5824,-1.5828,-1.5828,-1.5829,-1.5829,-1.5813,-1.5827,-1.5827,-1.5827,-1.5827,-1.5827,0,-1.5635,-1.5646,-1.5659,-1.5677,-1.5689,-1.5694,-1.5709,-1.5718,-1.5732,-1.5746,-1.5759,-1.5777,-1.5793,-1.5807,-1.5823,-1.583,-1.5833,-1.5834,-1.5833,-1.5835,-1.5827,-1.5824,-1.5832,-1.5832,-1.5832,-1.5832,-1.5832,-1.5832,-1.564,-1.5656,-1.5664,-1.5685,-1.5696,-1.5712,-1.572,-1.5731,-1.5742,-1.5762,-1.5775,-1.5785,-1.5799,-1.5816,-1.5831,-1.5834,-1.584,-1.584,-1.5844,-1.5837,-1.5836,-1.5835,-1.5832,-1.5841,-1.5841,-1.5851,-1.5851,-1.5852]},{"header":{"parameterUnit":"m.s-1","parameterCategory":1,"la1":30.2991,"la2":30.254,"lo1":-89.0895,"lo2":-89.0444,"dy":0.0017,"dx":0.0017,"nx":28,"ny":28,"refTime":"2024-05-07T03:00:00:Z","depth":0,"parameterNumber":3,"parameterNumberName":"V-component_of_WINDS"},"data":[0,0,0,0,0,0,0,0,0,0,0,0,0,0,0,0,0,0,0,0,0,0,0,0,0,0,0,0,0,0,0,0,0,0,0,0,0,0,0,0,0,0,0,0,0,0,0,0,0,0,0,0,0,0,0,0,0,0,4.6429,4.6431,0,4.6554,4.6555,4.6556,4.6565,4.6564,4.6562,4.6561,4.6681,4.6685,4.6689,0,0,0,0,0,0,0,0,0,0,0,0,0,4.6192,4.6196,4.6429,4.6431,4.6432,4.6553,4.6555,4.6557,4.6565,4.6564,4.6562,4.656,4.6679,4.6684,4.669,0,0,0,0,0,0,0,0,0,0,0,0,0,4.6303,4.6198,4.6429,4.6451,4.6455,4.6553,4.6555,4.6557,4.6566,4.6564,4.6562,4.656,4.6677,4.6684,4.669,4.6773,0,0,4.6711,4.6714,0,0,0,0,0,0,0,0,4.6297,4.6312,4.6447,4.645,4.6454,4.6542,4.6515,4.6629,4.6566,4.6523,4.6561,4.6559,4.6636,4.6646,4.6673,4.6778,4.6783,4.6711,4.6716,4.6718,4.672,0,0,0,0,0,0,0,4.6289,4.6307,4.6478,4.6448,4.6453,4.6453,4.6466,4.6537,4.6589,4.6527,4.6528,4.6543,4.6637,4.6667,4.6676,4.6785,4.6711,4.6717,4.6721,4.6724,4.6964,4.6966,0,0,0,0,0,0,4.6278,4.63,4.6474,4.6482,4.6369,4.6459,4.6474,4.6516,4.6588,4.6598,4.6544,4.6543,4.6656,4.6668,4.668,4.6782,4.6718,4.6725,4.6728,4.6961,4.6964,4.6967,0,0,0,0,0,0,4.6273,4.6294,4.6469,4.6392,4.6414,4.6465,4.6512,4.6519,4.6549,4.6602,4.661,4.6566,4.6655,4.6671,4.675,4.6786,4.6728,4.6734,4.6959,4.6962,4.6965,4.6985,0,0,0,0,0,0,4.6266,4.6292,4.6325,4.6392,4.6418,4.6539,4.6514,4.6523,4.6561,4.656,4.6624,4.6632,4.6655,4.674,4.6757,4.6794,4.6739,4.6956,4.696,4.6964,4.6981,4.6989,4.6995,0,0,0,0,0,4.6258,4.6324,4.6327,4.6348,4.6461,4.6541,4.6556,4.6582,4.6564,4.6597,4.6631,4.663,4.6779,4.6748,4.6767,4.6807,4.6953,4.6959,4.6964,4.6978,4.6987,4.6995,0,0,0,0,0,0,4.6257,4.6333,4.6337,4.6428,4.6478,4.6543,4.6585,4.6591,4.6646,4.6642,4.6671,4.6685,4.6763,4.6793,4.6757,4.689,4.6864,4.6873,4.6868,4.6877,4.6884,4.6875,4.6744,0,0,0,0,0,4.6268,4.6329,4.6391,4.6465,4.649,4.6533,4.6569,4.6586,4.6638,4.6659,4.6699,4.6748,4.6806,4.6843,4.6899,4.6985,4.6999,4.7022,4.7029,4.7034,4.7042,4.709,4.71,4.6984,4.6984,4.6984,0,0,4.629,4.6339,4.6375,4.6466,4.6507,4.6568,4.6551,4.6616,4.6661,4.6668,4.6746,4.6777,4.6833,4.6917,4.6955,4.6944,4.7077,4.7041,4.7045,4.705,4.7096,4.7107,4.7117,4.6988,4.6987,4.6987,0,0,4.6361,4.6405,4.6471,4.6514,4.6577,4.6606,4.6622,4.6686,4.6708,4.6787,4.6794,4.6846,4.6945,4.6985,4.7019,4.7106,4.7107,4.7123,4.7159,4.7205,4.7214,4.7223,4.7254,4.7265,4.7131,4.7131,4.7131,0,4.638,4.6474,4.6504,4.657,4.6609,4.6621,4.6687,4.6726,4.6803,4.6829,4.6815,4.6941,4.6979,4.7073,4.7094,4.7121,4.7139,4.7116,4.7211,4.722,4.7228,4.7258,4.7269,4.7132,4.7132,4.7132,4.7132,0,4.6494,4.6559,4.6604,4.6683,4.6727,4.6792,4.683,4.687,4.6883,4.6912,4.6992,4.7039,4.7106,4.7129,4.714,4.7224,4.7215,4.7206,4.718,4.724,4.7269,4.728,4.7134,4.7134,4.7133,4.7133,0,0,4.6568,4.6663,4.6679,4.6715,4.6786,4.6836,4.6901,4.6969,4.7003,4.7055,4.711,4.7194,4.7187,4.7225,4.7241,4.7282,4.7348,4.7268,4.7269,4.7281,4.7443,4.7449,4.7462,4.7349,4.7352,4.7353,4.7438,0,4.6647,4.6767,4.6796,4.6898,4.6958,4.697,4.7027,4.7076,4.7105,4.7158,4.7188,4.7248,4.7234,4.7257,4.7298,4.7331,4.7381,4.7326,4.7399,4.7401,4.7385,4.7477,4.7484,4.7562,4.7449,4.7451,4.7453,0,4.6756,4.6815,4.6923,4.6988,4.7014,4.7065,4.7129,4.7181,4.7235,4.7254,4.7297,4.7309,4.7375,4.7347,4.7438,4.74,4.7431,4.7452,4.7456,4.7464,4.7431,4.7488,4.7587,4.7599,4.7471,4.7469,4.7468,0,4.68,4.6905,4.6984,4.7014,4.7091,4.7127,4.716,4.7213,4.7252,4.7307,4.7332,4.7393,4.7427,4.7473,4.7501,4.7477,4.759,4.7563,4.7606,4.7605,4.7629,4.7627,4.7735,4.7649,4.7648,4.7648,4.7648,0,4.6886,4.6952,4.7005,4.7054,4.7127,4.7159,4.723,4.7263,4.731,4.7364,4.7377,4.7426,4.746,4.7513,4.7535,4.7607,4.7622,4.7637,4.7642,4.7637,4.7635,4.7658,4.7653,4.7651,4.7651,4.765,4.7649,0,4.6947,4.6986,4.7073,4.7139,4.7157,4.7209,4.7264,4.7311,4.734,4.7408,4.7425,4.7471,4.7535,4.7567,4.7645,4.766,4.7742,4.7743,4.7724,4.7726,4.7767,4.7763,4.7894,4.7913,4.7813,4.7814,4.7815,0,4.7,4.7051,4.7124,4.7162,4.7197,4.7258,4.7299,4.7331,4.7372,4.7439,4.7477,4.7542,4.7596,4.7697,4.7736,4.7796,4.7799,4.7841,4.7808,4.7801,4.78,4.7797,4.7802,4.7846,4.7847,4.7848,4.7849,0,4.7089,4.7106,4.7165,4.7232,4.7281,4.7334,4.7386,4.7415,4.7456,4.7501,4.7568,4.761,4.7692,4.7756,4.7819,4.7851,4.7856,4.7859,4.7872,4.7867,4.7854,4.7862,4.7741,4.7856,4.7855,4.7854,4.7854,4.7854,4.7148,4.7194,4.7254,4.7319,4.7362,4.7411,4.7459,4.7495,4.7552,4.7623,4.7638,4.7709,4.7762,4.7848,4.7882,4.7936,4.7927,4.7946,4.795,4.7955,4.7957,4.7845,4.7947,4.7947,4.7947,4.7947,4.7947,0,4.7238,4.7277,4.7337,4.7412,4.7463,4.7466,4.7524,4.7566,4.7629,4.768,4.7733,4.781,4.7872,4.7917,4.798,4.8015,4.8019,4.803,4.8028,4.8035,4.7961,4.7944,4.8026,4.8026,4.8026,4.8026,4.8026,4.8026,4.7291,4.7371,4.7395,4.7495,4.7533,4.7604,4.7637,4.7682,4.7722,4.7808,4.7861,4.7891,4.7938,4.8005,4.8062,4.8073,4.8096,4.8107,4.8118,4.8048,4.804,4.8032,4.8016,4.8112,4.8112,4.8188,4.8188,4.8189]}]]